Starlink 5062

operational
NORAD ID: 55637 Int'l Des: 2023-021 Owner: SPXS Country: US Constellation: starlink
LEOCIRCULAR

关于 Starlink 5062

正在加载描述...

实时位置

正在加载3D地球...

即将过境

高度历史

Altitude vs Time

uPlot chart will show altitude changes over time

两行轨道根数

1 55637U 23021K 25304.00850280 -.00000996 00000-0 -75678-4 0 9994
2 55637 69.9968 151.5433 0002935 269.4470 90.6353 14.98323099149365
Epoch: Oct 31, 2025 • Age: 17 hours

当前状态

高度 588.1 km
速度 7.57 km/s
星下点 -47.11°S, 53.62°E
发射日期 Feb 17, 2023
运行时间 2.6 years
类型 internet

技术详情

分类 Payload
质量 305.00 kg
干质量 290.00 kg
总质量 305.00 kg
长度 0.20 m
直径 2.80 m
跨度 9.00 m
形状 Box + pan
制造商 SPXS
平台类型 Starlink
阶段状态 In Orbit
所有者/国家 SPXS/US

大型星座

Loading constellations...